Cheraw, SC

3:43 PM EST on February 19, 2018 (GMT -0500)
Cheraw

Weather History for KCQW - July, 2013

Change the Weather History Date:

Tuesday, July 23, 2013

  Actual Average (KFLO) Record (KFLO)
Temperature  
Mean Temperature 81 °F -  
Max Temperature 89 °F 90 °F 104 °F (1952)
Min Temperature 73 °F 71 °F 59 °F (1966)
Cooling Degree Days 16    
Growing Degree Days 31 (Base 50)    
Moisture  
Dew Point 71 °F    
Average Humidity 77    
Maximum Humidity 100    
Minimum Humidity 49    
Precipitation  
Precipitation 0.00 in - - ()
Sea Level Pressure  
Sea Level Pressure 29.83 in    
Wind  
Wind Speed - (North)    
Max Wind Speed -    
Max Gust Speed -    
Averages and records for this station are not official NWS values.
T = Trace of Precipitation, MM = Missing Value Source: NWS Daily Summary

Daily Weather History Graph

Daily Weather History Graph

Search for Another Location

Airport or City:

Trip Planner

Search our weather history database for the weather conditions in past years. The results will help you decide how hot, cold, wet, or windy it might be!

Date:

Astronomy

Jul. 23, 2013 Rise Set
Actual Time 6:23 AM EDT 8:28 PM EDT
Civil Twilight 5:55 AM EDT 8:57 PM EDT
Nautical Twilight 5:20 AM EDT 9:31 PM EDT
Astronomical Twilight 4:43 AM EDT 10:08 PM EDT
Moon 9:02 PM EDT (7/23) 7:25 AM EDT (7/23)
Length of Visible Light 15h 01m
Length of Day
14h 05m
Full, 99% of the Moon is Illuminated
Jul 23
Full
Jul 29
Last Quarter
Aug 6
New
Aug 14
First Quarter
Aug 20
Full

Hourly Weather History & Observations

Time (EDT) Temp. Heat Index Dew Point Humidity Pressure Visibility Wind Dir Wind Speed Gust Speed Precip Events Conditions
12:15 AM 75.2 °F - 71.6 °F 89% 29.88 in - North - - N/A Rain Light Rain
12:35 AM 75.2 °F - 71.6 °F 89% 29.88 in - North - - N/A Rain Light Rain
12:55 AM 75.2 °F - 71.6 °F 89% 29.88 in - North - - N/A Rain Light Rain
1:15 AM 75.2 °F - 71.6 °F 89% 29.87 in - North - - N/A Rain Light Rain
1:35 AM 75.2 °F - 71.6 °F 89% 29.87 in - North - - N/A Rain Light Rain
1:55 AM 75.2 °F - 71.6 °F 89% 29.86 in - North - - N/A Rain Light Rain
2:15 AM 73.4 °F - 71.6 °F 94% 29.86 in - North - - N/A Rain Light Rain
2:35 AM 73.4 °F - 71.6 °F 94% 29.86 in - North - - N/A Rain Light Rain
2:55 AM 73.4 °F - 71.6 °F 94% 29.85 in - North - - N/A Rain Light Rain
3:15 AM 73.4 °F - 71.6 °F 94% 29.85 in - North - - N/A Rain Light Rain
3:35 AM 73.4 °F - 71.6 °F 94% 29.85 in - North - - N/A Rain Light Rain
3:55 AM 73.4 °F - 71.6 °F 94% 29.84 in - North - - N/A Rain Light Rain
4:15 AM 73.4 °F - 71.6 °F 94% 29.84 in - North - - N/A Rain Light Rain
4:35 AM 73.4 °F - 71.6 °F 94% 29.84 in - North - - N/A Rain Light Rain
4:55 AM 73.4 °F - 71.6 °F 94% 29.84 in - North - - N/A Rain Light Rain
5:15 AM 73.4 °F - 71.6 °F 94% 29.85 in - North - - N/A Rain Light Rain
5:35 AM 73.4 °F - 71.6 °F 94% 29.85 in - North - - N/A Rain Light Rain
5:55 AM 73.4 °F - 71.6 °F 94% 29.85 in - North - - N/A Rain Light Rain
6:15 AM 73.4 °F - 71.6 °F 94% 29.86 in - North - - N/A Rain Light Rain
6:35 AM 73.4 °F - 71.6 °F 94% 29.86 in - North - - N/A Rain Light Rain
6:55 AM 73.4 °F - 71.6 °F 94% 29.87 in - North - - N/A Rain Light Rain
7:15 AM 73.4 °F - 71.6 °F 94% 29.87 in - North - - N/A Rain Light Rain
7:35 AM 73.4 °F - 71.6 °F 94% 29.87 in - North - - N/A Rain Light Rain
7:55 AM 73.4 °F - 73.4 °F 100% 29.87 in - North - - N/A Rain Light Rain
8:15 AM 75.2 °F - 73.4 °F 94% 29.87 in - North - - N/A Rain Light Rain
8:35 AM 77.0 °F - 73.4 °F 89% 29.87 in - North - - N/A Rain Light Rain
8:55 AM 77.0 °F - 73.4 °F 89% 29.87 in - North - - N/A Rain Light Rain
9:15 AM 77.0 °F - 73.4 °F 89% 29.86 in - North - - N/A Rain Light Rain
9:35 AM 78.8 °F - 73.4 °F 83% 29.86 in - North - - N/A Rain Light Rain
9:55 AM 80.6 °F 85.4 °F 73.4 °F 79% 29.86 in - North - - N/A Rain Light Rain
10:15 AM 80.6 °F 85.4 °F 73.4 °F 79% 29.86 in - North - - N/A Rain Light Rain
10:35 AM 80.6 °F 85.4 °F 73.4 °F 79% 29.86 in - North - - N/A Rain Light Rain
10:55 AM 82.4 °F 88.2 °F 73.4 °F 74% 29.86 in - North - - N/A Rain Light Rain
11:15 AM 82.4 °F 88.2 °F 73.4 °F 74% 29.85 in - North - - N/A Rain Light Rain
11:35 AM 82.4 °F 88.2 °F 73.4 °F 74% 29.85 in - North - - N/A Rain Light Rain
11:55 AM 84.2 °F 90.9 °F 73.4 °F 70% 29.85 in - North - - N/A Rain Light Rain
12:15 PM 84.2 °F 90.9 °F 73.4 °F 70% 29.85 in - North - - N/A Rain Light Rain
12:35 PM 86.0 °F 93.4 °F 73.4 °F 66% 29.85 in - North - - N/A Rain Light Rain
12:55 PM 86.0 °F 93.4 °F 73.4 °F 66% 29.85 in - North - - N/A Rain Light Rain
1:15 PM 86.0 °F 91.8 °F 71.6 °F 62% 29.84 in - North - - N/A Rain Light Rain
1:35 PM 86.0 °F 91.8 °F 71.6 °F 62% 29.84 in - North - - N/A Rain Light Rain
1:55 PM 87.8 °F 93.8 °F 71.6 °F 58% 29.83 in - North - - N/A Rain Light Rain
2:15 PM 87.8 °F 93.8 °F 71.6 °F 58% 29.83 in - North - - N/A Rain Light Rain
2:35 PM 87.8 °F 92.6 °F 69.8 °F 55% 29.83 in - North - - N/A Rain Light Rain
2:55 PM 86.0 °F 90.4 °F 69.8 °F 58% 29.82 in - North - - N/A Rain Light Rain
3:15 PM 87.8 °F 92.6 °F 69.8 °F 55% 29.81 in - North - - N/A Rain Light Rain
3:35 PM 87.8 °F 91.4 °F 68.0 °F 52% 29.80 in - North - - N/A Rain Light Rain
3:55 PM 87.8 °F 92.6 °F 69.8 °F 55% 29.80 in - North - - N/A Rain Light Rain
4:15 PM 86.0 °F 90.4 °F 69.8 °F 58% 29.79 in - North - - N/A Rain Light Rain
4:35 PM 89.6 °F 94.7 °F 69.8 °F 52% 29.78 in - North - - N/A Rain Light Rain
4:55 PM 89.6 °F 93.4 °F 68.0 °F 49% 29.78 in - North - - N/A Rain Light Rain
5:15 PM 87.8 °F 91.4 °F 68.0 °F 52% 29.78 in - North - - N/A Rain Light Rain
5:35 PM 89.6 °F 93.4 °F 68.0 °F 49% 29.78 in - North - - N/A Rain Light Rain
5:55 PM 87.8 °F 91.4 °F 68.0 °F 52% 29.77 in - North - - N/A Rain Light Rain
6:15 PM 87.8 °F 91.4 °F 68.0 °F 52% 29.77 in - North - - N/A Rain Light Rain
6:35 PM 87.8 °F 92.6 °F 69.8 °F 55% 29.76 in - North - - N/A Rain Light Rain
6:55 PM 86.0 °F 90.4 °F 69.8 °F 58% 29.77 in - North - - N/A Rain Light Rain
7:15 PM 86.0 °F 90.4 °F 69.8 °F 58% 29.77 in - North - - N/A Rain Light Rain
7:35 PM 84.2 °F 88.4 °F 69.8 °F 62% 29.78 in - North - - N/A Rain Light Rain
7:55 PM 84.2 °F 89.6 °F 71.6 °F 66% 29.78 in - North - - N/A Rain Light Rain
8:15 PM 82.4 °F 87.2 °F 71.6 °F 70% 29.79 in - North - - N/A Rain Light Rain
8:35 PM 80.6 °F 84.6 °F 71.6 °F 74% 29.78 in - North - - N/A Rain Light Rain
8:55 PM 80.6 °F 84.6 °F 71.6 °F 74% 29.78 in - North - - N/A Rain Light Rain
9:15 PM 78.8 °F - 71.6 °F 78% 29.79 in - North - - N/A Rain Light Rain
9:35 PM 77.0 °F - 71.6 °F 83% 29.80 in - North - - N/A Rain Light Rain
9:55 PM 77.0 °F - 71.6 °F 83% 29.81 in - North - - N/A Rain Light Rain
10:15 PM 77.0 °F - 71.6 °F 83% 29.81 in - North - - N/A Rain Light Rain
10:35 PM 75.2 °F - 71.6 °F 89% 29.82 in - North - - N/A Rain Light Rain
10:55 PM 75.2 °F - 71.6 °F 89% 29.81 in - North - - N/A Rain Light Rain
11:15 PM 75.2 °F - 71.6 °F 89% 29.81 in - North - - N/A Rain Light Rain
11:35 PM 75.2 °F - 71.6 °F 89% 29.81 in - North - - N/A Rain Light Rain
11:55 PM 73.4 °F - 71.6 °F 94% 29.81 in - North - - N/A Rain Light Rain